Time,TemperatureF,DewpointF,PressureIn,WindDirection,WindDirectionDegrees,WindSpeedMPH,WindSpeedGustMPH,Humidity,HourlyPrecipIn,Conditions,Clouds,dailyrainin,SoftwareType,DateUTC
2013-02-16 00:02:00,24.0,17.0,30.26,WSW,241,0.0,-999.0,74,-99.99,,,-99.99,,2013-02-16 06:02:00,
2013-02-16 00:21:00,24.0,18.0,30.27,WSW,241,0.0,-999.0,76,-99.99,,,-99.99,,2013-02-16 06:21:00,
2013-02-16 00:32:00,23.0,16.0,30.27,WSW,241,0.0,-999.0,75,-99.99,,,-99.99,,2013-02-16 06:32:00,
2013-02-16 00:51:00,23.0,17.0,30.27,WSW,241,0.0,-999.0,76,-99.99,,,-99.99,,2013-02-16 06:51:00,
2013-02-16 01:02:00,22.0,16.0,30.27,WSW,241,0.0,-999.0,77,-99.99,,,-99.99,,2013-02-16 07:02:00,
2013-02-16 01:21:00,22.0,16.0,30.27,WSW,241,0.0,-999.0,77,-99.99,,,-99.99,,2013-02-16 07:21:00,
2013-02-16 01:31:00,22.0,16.0,30.27,WSW,241,0.0,-999.0,78,-99.99,,,-99.99,,2013-02-16 07:31:00,
2013-02-16 01:52:00,21.0,16.0,30.27,WSW,241,0.0,-999.0,79,-99.99,,,-99.99,,2013-02-16 07:52:00,
2013-02-16 02:01:00,21.0,16.0,30.26,WSW,241,0.0,-999.0,80,-99.99,,,-99.99,,2013-02-16 08:01:00,
2013-02-16 02:21:00,20.0,15.0,30.26,WSW,241,0.0,-999.0,81,-99.99,,,-99.99,,2013-02-16 08:21:00,
2013-02-16 02:31:00,20.0,15.0,30.26,WSW,241,0.0,-999.0,82,-99.99,,,-99.99,,2013-02-16 08:31:00,
2013-02-16 02:52:00,20.0,16.0,30.26,WSW,241,0.0,-999.0,83,-99.99,,,-99.99,,2013-02-16 08:52:00,
2013-02-16 03:01:00,21.0,16.0,30.26,WSW,241,0.0,-999.0,82,-99.99,,,-99.99,,2013-02-16 09:01:00,
2013-02-16 03:11:00,21.0,16.0,30.26,WSW,241,0.0,-999.0,82,-99.99,,,-99.99,,2013-02-16 09:11:00,
2013-02-16 03:21:00,21.0,16.0,30.25,WSW,241,0.0,-999.0,80,-99.99,,,-99.99,,2013-02-16 09:21:00,
2013-02-16 03:31:00,21.0,16.0,30.26,WSW,241,0.0,-999.0,80,-99.99,,,-99.99,,2013-02-16 09:31:00,
2013-02-16 03:42:00,21.0,16.0,30.26,WSW,241,0.0,-999.0,80,-99.99,,,-99.99,,2013-02-16 09:42:00,
2013-02-16 03:51:00,21.0,16.0,30.25,WSW,241,0.0,-999.0,82,-99.99,,,-99.99,,2013-02-16 09:51:00,
2013-02-16 04:01:00,22.0,18.0,30.26,WSW,241,0.0,-999.0,83,-99.99,,,-99.99,,2013-02-16 10:01:00,
2013-02-16 04:11:00,22.0,18.0,30.26,WSW,241,0.0,-999.0,83,-99.99,,,-99.99,,2013-02-16 10:11:00,
2013-02-16 04:21:00,22.0,18.0,30.26,WSW,241,0.0,-999.0,83,-99.99,,,-99.99,,2013-02-16 10:21:00,
2013-02-16 04:31:00,22.0,18.0,30.26,WSW,241,0.0,-999.0,83,-99.99,,,-99.99,,2013-02-16 10:31:00,
2013-02-16 04:42:00,22.0,18.0,30.26,WSW,241,0.0,-999.0,83,-99.99,,,-99.99,,2013-02-16 10:42:00,
2013-02-16 04:51:00,23.0,18.0,30.24,WSW,241,0.0,-999.0,82,-99.99,,,-99.99,,2013-02-16 10:51:00,
2013-02-16 05:02:00,23.0,18.0,30.24,WSW,241,0.0,-999.0,81,-99.99,,,-99.99,,2013-02-16 11:02:00,
2013-02-16 05:11:00,23.0,18.0,30.24,WSW,241,0.0,-999.0,81,-99.99,,,-99.99,,2013-02-16 11:11:00,
2013-02-16 05:22:00,24.0,19.0,30.25,WSW,241,0.0,-999.0,80,-99.99,,,-99.99,,2013-02-16 11:22:00,
2013-02-16 05:32:00,25.0,20.0,30.25,WSW,241,0.0,-999.0,81,-99.99,,,-99.99,,2013-02-16 11:32:00,
2013-02-16 05:42:00,25.0,20.0,30.25,WSW,241,0.0,-999.0,81,-99.99,,,-99.99,,2013-02-16 11:42:00,
2013-02-16 05:52:00,25.0,20.0,30.24,WSW,241,0.0,-999.0,81,-99.99,,,-99.99,,2013-02-16 11:52:00,
2013-02-16 06:01:00,25.0,20.0,30.25,WSW,241,0.0,-999.0,81,-99.99,,,-99.99,,2013-02-16 12:01:00,
2013-02-16 06:12:00,25.0,20.0,30.25,WSW,241,0.0,-999.0,81,-99.99,,,-99.99,,2013-02-16 12:12:00,
2013-02-16 06:22:00,26.0,20.0,30.26,WSW,241,0.0,-999.0,79,-99.99,,,-99.99,,2013-02-16 12:22:00,
2013-02-16 06:32:00,26.0,21.0,30.25,WSW,241,0.0,-999.0,81,-99.99,,,-99.99,,2013-02-16 12:32:00,
2013-02-16 06:42:00,26.0,21.0,30.25,WSW,241,0.0,-999.0,81,-99.99,,,-99.99,,2013-02-16 12:42:00,
2013-02-16 06:52:00,26.0,21.0,30.25,WSW,241,0.0,-999.0,81,-99.99,,,-99.99,,2013-02-16 12:52:00,
2013-02-16 07:02:00,26.0,20.0,30.25,WSW,241,0.0,-999.0,79,-99.99,,,-99.99,,2013-02-16 13:02:00,
2013-02-16 07:12:00,26.0,21.0,30.26,WSW,241,0.0,-999.0,80,-99.99,,,-99.99,,2013-02-16 13:12:00,
2013-02-16 07:21:00,26.0,21.0,30.26,WSW,241,0.0,-999.0,80,-99.99,,,-99.99,,2013-02-16 13:21:00,
2013-02-16 07:31:00,27.0,21.0,30.27,WSW,241,0.0,-999.0,78,-99.99,,,-99.99,,2013-02-16 13:31:00,
2013-02-16 07:41:00,27.0,21.0,30.27,WSW,241,0.0,-999.0,78,-99.99,,,-99.99,,2013-02-16 13:41:00,
2013-02-16 07:51:00,27.0,20.0,30.27,WSW,241,0.0,-999.0,76,-99.99,,,-99.99,,2013-02-16 13:51:00,
2013-02-16 08:01:00,28.0,19.0,30.29,NNW,339,2.0,-999.0,69,-99.99,,,-99.99,,2013-02-16 14:01:00,
2013-02-16 08:11:00,28.0,19.0,30.29,NNW,339,2.0,-999.0,69,-99.99,,,-99.99,,2013-02-16 14:11:00,
2013-02-16 08:21:00,28.0,19.0,30.29,WNW,286,2.0,-999.0,69,-99.99,,,-99.99,,2013-02-16 14:21:00,
2013-02-16 08:32:00,28.0,20.0,30.31,NNW,347,3.0,-999.0,70,-99.99,,,-99.99,,2013-02-16 14:32:00,
2013-02-16 08:41:00,28.0,20.0,30.31,NNW,347,3.0,-999.0,70,-99.99,,,-99.99,,2013-02-16 14:41:00,
2013-02-16 08:52:00,28.0,19.0,30.31,East,96,3.0,-999.0,69,-99.99,,,-99.99,,2013-02-16 14:52:00,
2013-02-16 09:01:00,28.0,20.0,30.32,NNW,346,2.0,-999.0,70,-99.99,,,-99.99,,2013-02-16 15:01:00,
2013-02-16 09:11:00,28.0,20.0,30.32,NNW,346,2.0,-999.0,70,-99.99,,,-99.99,,2013-02-16 15:11:00,
2013-02-16 09:21:00,28.0,19.0,30.31,NNW,336,2.0,-999.0,69,-99.99,,,-99.99,,2013-02-16 15:21:00,
2013-02-16 09:32:00,29.0,19.0,30.32,NNW,330,4.0,-999.0,66,-99.99,,,-99.99,,2013-02-16 15:32:00,
2013-02-16 09:42:00,29.0,19.0,30.32,NNW,330,4.0,-999.0,66,-99.99,,,-99.99,,2013-02-16 15:42:00,
2013-02-16 09:51:00,29.0,19.0,30.32,NNE,15,4.0,-999.0,65,-99.99,,,-99.99,,2013-02-16 15:51:00,
2013-02-16 10:01:00,29.0,18.0,30.32,NW,308,5.0,-999.0,63,-99.99,,,-99.99,,2013-02-16 16:01:00,
2013-02-16 10:11:00,29.0,18.0,30.32,NW,308,5.0,-999.0,63,-99.99,,,-99.99,,2013-02-16 16:11:00,
2013-02-16 10:21:00,30.0,18.0,30.32,NE,38,3.0,-999.0,61,-99.99,,,-99.99,,2013-02-16 16:21:00,
2013-02-16 10:32:00,30.0,17.0,30.33,NNW,341,3.0,-999.0,59,-99.99,,,-99.99,,2013-02-16 16:32:00,
2013-02-16 10:41:00,30.0,17.0,30.33,NNW,341,3.0,-999.0,59,-99.99,,,-99.99,,2013-02-16 16:41:00,
2013-02-16 10:51:00,31.0,18.0,30.33,West,281,3.0,-999.0,59,-99.99,,,-99.99,,2013-02-16 16:51:00,
2013-02-16 11:01:00,32.0,18.0,30.33,NW,320,3.0,-999.0,55,-99.99,,,-99.99,,2013-02-16 17:01:00,
2013-02-16 11:11:00,32.0,18.0,30.33,NW,320,3.0,-999.0,55,-99.99,,,-99.99,,2013-02-16 17:11:00,
2013-02-16 11:21:00,32.0,18.0,30.32,NW,323,4.0,-999.0,55,-99.99,,,-99.99,,2013-02-16 17:21:00,
2013-02-16 11:32:00,33.0,18.0,30.32,NNE,28,3.0,-999.0,53,-99.99,,,-99.99,,2013-02-16 17:32:00,
2013-02-16 11:42:00,33.0,18.0,30.32,NNE,28,3.0,-999.0,53,-99.99,,,-99.99,,2013-02-16 17:42:00,
2013-02-16 11:52:00,33.0,17.0,30.32,WNW,290,4.0,-999.0,52,-99.99,,,-99.99,,2013-02-16 17:52:00,
2013-02-16 12:02:00,34.0,17.0,30.32,WNW,292,4.0,-999.0,50,-99.99,,,-99.99,,2013-02-16 18:02:00,
2013-02-16 12:11:00,34.0,17.0,30.32,WNW,292,4.0,-999.0,50,-99.99,,,-99.99,,2013-02-16 18:11:00,
2013-02-16 12:21:00,34.0,17.0,30.32,WNW,292,4.0,-999.0,50,-99.99,,,-99.99,,2013-02-16 18:21:00,
2013-02-16 12:33:00,35.0,17.0,30.30,NNW,337,3.0,-999.0,47,-99.99,,,-99.99,,2013-02-16 18:33:00,
2013-02-16 12:42:00,35.0,17.0,30.30,NNW,337,3.0,-999.0,47,-99.99,,,-99.99,,2013-02-16 18:42:00,
2013-02-16 12:52:00,36.0,18.0,30.29,West,276,4.0,-999.0,47,-99.99,,,-99.99,,2013-02-16 18:52:00,
2013-02-16 13:02:00,36.0,17.0,30.28,NNE,15,4.0,-999.0,46,-99.99,,,-99.99,,2013-02-16 19:02:00,
2013-02-16 13:11:00,36.0,17.0,30.28,NNE,15,4.0,-999.0,46,-99.99,,,-99.99,,2013-02-16 19:11:00,
2013-02-16 13:21:00,36.0,17.0,30.27,North,5,2.0,-999.0,46,-99.99,,,-99.99,,2013-02-16 19:21:00,
2013-02-16 13:31:00,38.0,19.0,30.27,WNW,290,2.0,-999.0,45,-99.99,,,-99.99,,2013-02-16 19:31:00,
2013-02-16 13:42:00,38.0,19.0,30.27,WNW,290,2.0,-999.0,45,-99.99,,,-99.99,,2013-02-16 19:42:00,
2013-02-16 13:52:00,38.0,18.0,30.26,NW,315,4.0,-999.0,44,-99.99,,,-99.99,,2013-02-16 19:52:00,
2013-02-16 14:01:00,38.0,18.0,30.26,West,269,4.0,-999.0,43,-99.99,,,-99.99,,2013-02-16 20:01:00,
2013-02-16 14:11:00,39.0,18.0,30.25,West,259,4.0,-999.0,42,-99.99,,,-99.99,,2013-02-16 20:11:00,
2013-02-16 14:21:00,39.0,18.0,30.25,West,259,4.0,-999.0,42,-99.99,,,-99.99,,2013-02-16 20:21:00,
2013-02-16 14:32:00,38.0,17.0,30.24,WSW,257,2.0,-999.0,42,-99.99,,,-99.99,,2013-02-16 20:32:00,
2013-02-16 14:42:00,38.0,17.0,30.24,WSW,257,2.0,-999.0,42,-99.99,,,-99.99,,2013-02-16 20:42:00,
2013-02-16 14:52:00,40.0,18.0,30.24,West,280,2.0,-999.0,41,-99.99,,,-99.99,,2013-02-16 20:52:00,
2013-02-16 15:02:00,40.0,18.0,30.23,NW,321,3.0,-999.0,40,-99.99,,,-99.99,,2013-02-16 21:02:00,
2013-02-16 15:11:00,40.0,18.0,30.23,NW,321,3.0,-999.0,40,-99.99,,,-99.99,,2013-02-16 21:11:00,
2013-02-16 15:21:00,39.0,15.0,30.22,WSW,254,2.0,-999.0,37,-99.99,,,-99.99,,2013-02-16 21:21:00,
2013-02-16 15:32:00,39.0,15.0,30.22,West,259,3.0,-999.0,37,-99.99,,,-99.99,,2013-02-16 21:32:00,
2013-02-16 15:41:00,39.0,15.0,30.22,West,259,3.0,-999.0,37,-99.99,,,-99.99,,2013-02-16 21:41:00,
2013-02-16 15:52:00,40.0,15.0,30.22,West,262,4.0,-999.0,36,-99.99,,,-99.99,,2013-02-16 21:52:00,
2013-02-16 16:01:00,41.0,15.0,30.22,NW,315,2.0,-999.0,34,-99.99,,,-99.99,,2013-02-16 22:01:00,
2013-02-16 16:11:00,41.0,15.0,30.22,NW,315,2.0,-999.0,34,-99.99,,,-99.99,,2013-02-16 22:11:00,
2013-02-16 16:21:00,40.0,15.0,30.21,NW,304,1.0,-999.0,35,-99.99,,,-99.99,,2013-02-16 22:21:00,
2013-02-16 16:32:00,40.0,14.0,30.21,WNW,298,1.0,-999.0,34,-99.99,,,-99.99,,2013-02-16 22:32:00,
2013-02-16 16:42:00,40.0,14.0,30.21,WNW,298,1.0,-999.0,34,-99.99,,,-99.99,,2013-02-16 22:42:00,
2013-02-16 16:51:00,40.0,15.0,30.21,WNW,296,1.0,-999.0,36,-99.99,,,-99.99,,2013-02-16 22:51:00,
2013-02-16 17:02:00,40.0,16.0,30.21,West,267,2.0,-999.0,37,-99.99,,,-99.99,,2013-02-16 23:02:00,
2013-02-16 17:11:00,39.0,17.0,30.20,West,263,1.0,-999.0,40,-99.99,,,-99.99,,2013-02-16 23:11:00,
2013-02-16 17:21:00,39.0,17.0,30.20,West,263,1.0,-999.0,40,-99.99,,,-99.99,,2013-02-16 23:21:00,
2013-02-16 17:31:00,39.0,16.0,30.20,WSW,256,2.0,-999.0,38,-99.99,,,-99.99,,2013-02-16 23:31:00,
2013-02-16 17:42:00,39.0,16.0,30.20,WSW,256,2.0,-999.0,38,-99.99,,,-99.99,,2013-02-16 23:42:00,
2013-02-16 17:52:00,39.0,16.0,30.20,WSW,256,2.0,-999.0,38,-99.99,,,-99.99,,2013-02-16 23:52:00,
2013-02-16 18:02:00,39.0,17.0,30.20,West,259,0.0,-999.0,40,-99.99,,,-99.99,,2013-02-17 00:02:00,
2013-02-16 18:12:00,39.0,17.0,30.20,West,259,0.0,-999.0,40,-99.99,,,-99.99,,2013-02-17 00:12:00,
2013-02-16 18:22:00,38.0,16.0,30.19,West,259,0.0,-999.0,41,-99.99,,,-99.99,,2013-02-17 00:22:00,
2013-02-16 18:32:00,38.0,19.0,30.19,West,259,0.0,-999.0,45,-99.99,,,-99.99,,2013-02-17 00:32:00,
2013-02-16 18:41:00,38.0,19.0,30.19,West,259,0.0,-999.0,45,-99.99,,,-99.99,,2013-02-17 00:41:00,
2013-02-16 18:51:00,38.0,19.0,30.19,West,259,0.0,-999.0,46,-99.99,,,-99.99,,2013-02-17 00:51:00,
2013-02-16 19:01:00,38.0,20.0,30.19,West,259,0.0,-999.0,47,-99.99,,,-99.99,,2013-02-17 01:01:00,
2013-02-16 19:11:00,38.0,20.0,30.19,West,259,0.0,-999.0,47,-99.99,,,-99.99,,2013-02-17 01:11:00,
2013-02-16 19:21:00,37.0,21.0,30.19,West,259,0.0,-999.0,51,-99.99,,,-99.99,,2013-02-17 01:21:00,
2013-02-16 19:31:00,37.0,23.0,30.19,West,259,0.0,-999.0,56,-99.99,,,-99.99,,2013-02-17 01:31:00,
2013-02-16 19:41:00,37.0,23.0,30.19,West,259,0.0,-999.0,56,-99.99,,,-99.99,,2013-02-17 01:41:00,
2013-02-16 19:52:00,36.0,20.0,30.19,West,259,0.0,-999.0,52,-99.99,,,-99.99,,2013-02-17 01:52:00,
2013-02-16 20:01:00,36.0,19.0,30.19,West,259,0.0,-999.0,50,-99.99,,,-99.99,,2013-02-17 02:01:00,
2013-02-16 20:11:00,36.0,19.0,30.19,West,259,0.0,-999.0,50,-99.99,,,-99.99,,2013-02-17 02:11:00,
2013-02-16 20:21:00,35.0,20.0,30.19,West,259,0.0,-999.0,54,-99.99,,,-99.99,,2013-02-17 02:21:00,
2013-02-16 20:31:00,35.0,20.0,30.19,West,259,0.0,-999.0,54,-99.99,,,-99.99,,2013-02-17 02:31:00,
2013-02-16 20:41:00,35.0,20.0,30.19,West,259,0.0,-999.0,54,-99.99,,,-99.99,,2013-02-17 02:41:00,
2013-02-16 20:52:00,35.0,22.0,30.19,West,259,0.0,-999.0,58,-99.99,,,-99.99,,2013-02-17 02:52:00,
2013-02-16 21:02:00,35.0,22.0,30.19,West,259,0.0,-999.0,58,-99.99,,,-99.99,,2013-02-17 03:02:00,
2013-02-16 21:11:00,35.0,22.0,30.19,West,259,0.0,-999.0,58,-99.99,,,-99.99,,2013-02-17 03:11:00,
2013-02-16 21:21:00,34.0,22.0,30.19,West,259,0.0,-999.0,61,-99.99,,,-99.99,,2013-02-17 03:21:00,
2013-02-16 21:31:00,34.0,22.0,30.20,West,259,0.0,-999.0,62,-99.99,,,-99.99,,2013-02-17 03:31:00,
2013-02-16 21:42:00,34.0,22.0,30.20,West,259,0.0,-999.0,62,-99.99,,,-99.99,,2013-02-17 03:42:00,
2013-02-16 21:51:00,34.0,22.0,30.20,West,259,0.0,-999.0,62,-99.99,,,-99.99,,2013-02-17 03:51:00,
2013-02-16 22:01:00,34.0,22.0,30.20,West,259,0.0,-999.0,62,-99.99,,,-99.99,,2013-02-17 04:01:00,
2013-02-16 22:11:00,34.0,23.0,30.20,West,259,0.0,-999.0,65,-99.99,,,-99.99,,2013-02-17 04:11:00,
2013-02-16 22:21:00,34.0,23.0,30.20,West,259,0.0,-999.0,65,-99.99,,,-99.99,,2013-02-17 04:21:00,
2013-02-16 22:31:00,33.0,22.0,30.20,West,259,0.0,-999.0,64,-99.99,,,-99.99,,2013-02-17 04:31:00,
2013-02-16 22:41:00,33.0,22.0,30.20,West,259,0.0,-999.0,64,-99.99,,,-99.99,,2013-02-17 04:41:00,
2013-02-16 22:51:00,33.0,23.0,30.20,West,259,0.0,-999.0,65,-99.99,,,-99.99,,2013-02-17 04:51:00,
2013-02-16 23:02:00,33.0,23.0,30.19,West,259,0.0,-999.0,66,-99.99,,,-99.99,,2013-02-17 05:02:00,
2013-02-16 23:12:00,33.0,24.0,30.18,West,259,0.0,-999.0,68,-99.99,,,-99.99,,2013-02-17 05:12:00,
2013-02-16 23:22:00,33.0,24.0,30.18,West,259,0.0,-999.0,68,-99.99,,,-99.99,,2013-02-17 05:22:00,
2013-02-16 23:33:00,33.0,23.0,30.18,West,259,0.0,-999.0,67,-99.99,,,-99.99,,2013-02-17 05:33:00,
2013-02-16 23:42:00,33.0,23.0,30.18,West,259,0.0,-999.0,67,-99.99,,,-99.99,,2013-02-17 05:42:00,
2013-02-16 23:52:00,33.0,23.0,30.18,West,259,0.0,-999.0,66,-99.99,,,-99.99,,2013-02-17 05:52:00,